Tracking 18840 objects as of 18-November-2017
HD Live streaming from Space Station
objects crossing your sky now

GOES 4 AKM

Track GOES 4 AKM now!


NORAD ID: 11970
Int'l Code: 1980-074C
Perigee: 33,767.9 km
Apogee: 50,290.1 km
Inclination: 23.0 °
Period: 1,766.2 minutes
Semi major axis: 48399 km
RCS: 0.003 m2 (small)
Launch date: September 9, 1980
Source: United States (US)
Launch site: AIR FORCE EASTERN TEST RANGE (AFETR)

Note: This is a ROCKET BODY
aabbcc
Your satellite tracking list
Your tracking list is empty




NASA's NSSDC Master Catalog

Two Line Element Set (TLE):
1 11970U 80074C   17321.62465113 -.00000254 +00000-0 +00000-0 0  9991
2 11970 022.9775 340.8146 1706846 194.5163 266.7272 00.81533263012971
Source of the keplerian elements: AFSPC